Weather Roundup
Issued by NWS Chicago, IL

Home | Current Version | Previous Version | Text Only | Print | Product List | Glossary Off
Versions: 1 2 3 4 5 6 7 8 9 10 11 12 13 14 15 16 17 18 19 20 21 22 23 24 25 26 27 28 29 30 31 32 33 34 35 36 37 38 39 40 41 42 43 44 45 46 47 48 49 50

000
NZUS59 KLOT 051508
HRRLOT

CHICAGO AREA WEATHER ROUNDUP
NATIONAL WEATHER SERVICE CHICAGO/ROMEOVILLE IL
1000 AM CDT SUN JUL 05 2015

NOTE: "FAIR" INDICATES FEW OR NO CLOUDS BELOW 12,000 FEET WITH NO
SIGNIFICANT WEATHER AND/OR OBSTRUCTIONS TO VISIBILITY.

* THESE STATIONS ARE NOT UNDER NWS QUALITY CONTROL. THEY ALSO MAY NOT
  REPORT WEATHER SUCH AS PRECIPITATION OR FOG.

ILZ005-006-012>014-019>023-051600-
NORTHEAST ILLINOIS

CITY           SKY/WX    TMP DP  RH WIND       PRES   REMARKS
OHARE          SUNNY     77  60  55 SW6       30.08S
MIDWAY         SUNNY     79  62  56 SW5       30.08F HX  80
AURORA         SUNNY     76  62  62 W5        30.09F
LANSING*       SUNNY     76  60  56 S6        30.09F
JOLIET*        SUNNY     77  66  68 S3        30.10S
WAUKEGAN       SUNNY     76  60  57 VRB6      30.08S
DUPAGE AIRPORT SUNNY     76  62  62 SW6       30.09S
WHEELING       SUNNY     78  60  53 VRB5      30.10S
KANKAKEE*      SUNNY     76  65  70 SE5       30.10F
MORRIS*        SUNNY     75  64  68 CALM      30.08R
LEWIS AIRPORT* SUNNY     76  62  60 CALM      30.09S
NORTHERLY IS     N/A     74  64  71 E3          N/A
$$

WIZ051-052-058>065-066-070>072-051600-
SOUTHEAST WISCONSIN

CITY           SKY/WX    TMP DP  RH WIND       PRES   REMARKS
MILWAUKEE      MOSUNNY   77  59  53 VRB6      30.07F
KENOSHA*       SUNNY     77  62  59 W7        30.09S
RACINE*        SUNNY     77  60  55 SW6       30.09F
BURLINGTON     SUNNY     73  62  68 S3        30.08F
WAUKESHA       SUNNY     73  61  64 SW7       30.09F
WEST BEND      SUNNY     75  59  57 S5        30.07F
$$

INZ001>003-010>013-019-020-051600-
NORTHWEST INDIANA

CITY           SKY/WX    TMP DP  RH WIND       PRES   REMARKS
GARY*          SUNNY    N/A N/A N/A CALM      30.10F
MICHIGAN CITY* NOT AVBL
RENSSELAER*    NOT AVBL
VALPARAISO     SUNNY     76  63  64 SW6       30.11F
$$

LMZ740>746-051600-
SOUTHERN LAKE MICHIGAN

STATION/POSITION TIME  SKY/WX   TEMP WIND        PRES    VSBY
                                AIR  DIR/SP/G
                 (UTC)          (F)  (DEG/KT/KT) (MB)    (MI)
HARRISON CRIB    1400            70   90/  3/  5   N/A
BURNHAM HARBOR   1500            73  100/  4/  6   N/A
CALUMET HARBOR   1400            76  190/  2/  3   N/A
BURNS HARBOR     1400            71  250/  2/  3 1020.0R
MICHIGAN CITY    1400            69  240/  3/  4   N/A
$$

ABBREVIATIONS USED IN REMARKS
   TC - TEMPERATURE IN CELSIUS
  WCI - WIND CHILL INDEX
   HX - HEAT INDEX
  VSB - VISIBILITY
$$



USA.gov is the U.S. government's official web portal to all federal, state and local government web resources and services.